Weather History for KMTJ - April, 2013

Change the Weather History Date:

Thursday, April 18, 2013

  Actual Average Record
Temperature  
Mean Temperature 29 °F 50 °F  
Max Temperature 39 °F 63 °F 79 °F (2001)
Min Temperature 18 °F 36 °F 18 °F (2013)
Degree Days  
Heating Degree Days 36 15  
Month to date heating degree days 352 319  
Since 1 July heating degree days 5738 5775  
Cooling Degree Days 0 0  
Month to date cooling degree days 0 0  
Year to date cooling degree days 0 0  
Moisture  
Dew Point 15 °F    
Average Humidity 60    
Maximum Humidity 84    
Minimum Humidity 35    
Precipitation  
Precipitation 0.00 in 0.04 in 0.15 in (2011)
Month to date precipitation 0.82 0.58  
Year to date precipitation 2.05 2.83  
Sea Level Pressure  
Sea Level Pressure 30.25 in    
Wind  
Wind Speed 8 mph (West)    
Max Wind Speed 23 mph    
Max Gust Speed 31 mph    
Visibility 10 miles    
Events      
T = Trace of Precipitation, MM = Missing Value Source: NWS Daily Summary

Daily Weather History Graph

Daily Weather History Graph

Search for Another Location

Airport or City:

Trip Planner

Search our weather history database for the weather conditions in past years. The results will help you decide how hot, cold, wet, or windy it might be!

Date:

Astronomy

Apr. 18, 2013 Rise Set
Actual Time 6:30 AM MDT 7:51 PM MDT
Civil Twilight 6:03 AM MDT 8:19 PM MDT
Nautical Twilight 5:30 AM MDT 8:52 PM MDT
Astronomical Twilight 4:55 AM MDT 9:27 PM MDT
Moon 12:46 PM MDT (4/18) 2:06 AM MDT (4/18)
Length of Visible Light 14h 15m
Length of Day
13h 20m
First Quarter, 52% of the Moon is Illuminated
Apr 18
First Quarter
Apr 25
Full
May 2
Last Quarter
May 9
New
May 17
First Quarter

Hourly Weather History & Observations

Time (MDT) Temp. Windchill Dew Point Humidity Pressure Visibility Wind Dir Wind Speed Gust Speed Precip Events Conditions
12:53 AM 26.1 °F - 14.0 °F 60% 30.17 in 10.0 mi Calm Calm - N/A   Overcast
1:53 AM 23.0 °F 15.8 °F 16.0 °F 74% 30.18 in 10.0 mi ESE 5.8 mph - N/A   Mostly Cloudy
2:53 AM 21.9 °F 14.5 °F 14.0 °F 72% 30.18 in 10.0 mi SE 5.8 mph - N/A   Overcast
3:53 AM 21.9 °F - 15.1 °F 75% 30.17 in 10.0 mi Calm Calm - N/A   Partly Cloudy
4:53 AM 19.9 °F 13.4 °F 15.1 °F 81% 30.18 in 10.0 mi SSE 4.6 mph - N/A   Partly Cloudy
5:53 AM 19.0 °F 11.1 °F 12.0 °F 74% 30.19 in 10.0 mi SE 5.8 mph - N/A   Partly Cloudy
6:53 AM 19.0 °F 11.1 °F 12.0 °F 74% 30.21 in 10.0 mi SE 5.8 mph - N/A   Overcast
7:53 AM 19.9 °F 13.4 °F 12.9 °F 74% 30.23 in 10.0 mi SE 4.6 mph - N/A   Clear
8:53 AM 24.1 °F - 14.0 °F 65% 30.24 in 10.0 mi Calm Calm - N/A   Partly Cloudy
9:53 AM 26.1 °F 18.4 °F 14.0 °F 60% 30.25 in 10.0 mi NNW 6.9 mph - N/A   Scattered Clouds
10:53 AM 28.0 °F 18.1 °F 15.1 °F 58% 30.26 in 10.0 mi WNW 11.5 mph - N/A   Mostly Cloudy
11:53 AM 30.0 °F 23.2 °F 16.0 °F 56% 30.26 in 10.0 mi North 6.9 mph - N/A   Scattered Clouds
12:53 PM 32.0 °F 23.6 °F 17.1 °F 54% 30.24 in 10.0 mi WNW 10.4 mph - N/A   Mostly Cloudy
1:53 PM 35.1 °F 26.9 °F 17.1 °F 48% 30.24 in 10.0 mi NW 11.5 mph 23.0 mph N/A   Scattered Clouds
2:53 PM 37.0 °F 27.0 °F 16.0 °F 42% 30.23 in 10.0 mi WNW 18.4 mph 28.8 mph N/A   Scattered Clouds
3:53 PM 37.9 °F 27.3 °F 16.0 °F 41% 30.24 in 10.0 mi NW 21.9 mph 27.6 mph N/A   Mostly Cloudy
4:53 PM 37.0 °F 29.3 °F 12.0 °F 36% 30.26 in 10.0 mi WNW 11.5 mph 20.7 mph N/A   Scattered Clouds
5:53 PM 37.9 °F 29.6 °F 15.1 °F 39% 30.28 in 10.0 mi WNW 13.8 mph 24.2 mph N/A   Overcast
6:53 PM 37.0 °F 28.9 °F 14.0 °F 39% 30.31 in 10.0 mi NW 12.7 mph - N/A   Partly Cloudy
7:53 PM 34.0 °F 28.0 °F 15.1 °F 46% 30.33 in 10.0 mi WNW 6.9 mph - N/A   Clear
8:53 PM 30.9 °F - 19.9 °F 64% 30.34 in 10.0 mi Calm Calm - N/A   Clear
9:53 PM 30.9 °F 22.2 °F 19.9 °F 64% 30.36 in 10.0 mi SSE 10.4 mph - N/A   Clear
10:53 PM 28.9 °F 20.4 °F 18.0 °F 64% 30.36 in 10.0 mi SSE 9.2 mph - N/A   Clear
11:53 PM 28.0 °F 18.6 °F 16.0 °F 61% 30.36 in 10.0 mi SSE 10.4 mph - N/A   Clear